Location: Highridge
(54.0333°N, 114.1333°W)
Time: 05:40:13
(UTC+00:00)

SO-50 - Pass Details

Date: 08 December 2023
Orbit: 608 x 660 km, 64.6° (Epoch: 02 March)

Event Time Altitude Azimuth Distance (km) Brightness Sun altitude
Exits shadow 12:31:54 28° 13° (NNE) 1,204 ? -26.4°
Drops below altitude 10° 12:34:37 10° 40° (NE) 2,038 ? -26.0°
Sets 12:37:03 0° 49° (NE) 2,939 ? -25.6°
